Location: Erlach
(47.0430°N, 7.0996°E)
Time: 07:35:33
(UTC+00:00)

STARLINK-1013 - Pass Details

Date: 07 June 2020
Orbit: 549 x 550 km, 53.0° (Epoch: 15 July)

Event Time Altitude Azimuth Distance (km) Brightness Sun altitude
Exits shadow 02:51:39 - 225° (SW) 1,927 5.7 -6.8°
Reaches altitude 10° 02:51:56 10° 224° (SW) 1,816 5.6 -6.7°
Maximum altitude 02:56:00 60° 145° (SE) 633 3.9 -6.2°
Drops below altitude 10° 03:00:05 10° 65° (ENE) 1,827 7.7 -5.7°
Sets 03:02:21 0° 62° (ENE) 2,723 9.1 -5.5°
